This is the latest recevied weather packets stored in our database for station/object AC8JV. If no packets are shown the sender has not sent any weather packets the latest 10 day(s).
| Time | Temp. | Humidity | Pressure | Rain* | Wind** | Luminosity | Snow |
|---|---|---|---|---|---|---|---|
| 1777915818 | 23.89° C | 25% | 1001.6 hPa | 0 mm | - | - | - |
| 1777915228 | 23.33° C | 27% | 1002 hPa | 0 mm | - | - | - |
| 1777914619 | 23.33° C | 29% | 1002.1 hPa | 0 mm | - | - | - |
| 1777914002 | 22.78° C | 27% | 1002.1 hPa | 0 mm | - | - | - |
| 1777913469 | 22.78° C | 28% | 1002.2 hPa | 0 mm | - | - | - |
| 1777912812 | 22.78° C | 28% | 1002.4 hPa | 0 mm | - | - | - |
| 1777912201 | 22.78° C | 30% | 1002.7 hPa | 0 mm | - | - | - |
| 1777911610 | 22.22° C | 32% | 1002.9 hPa | 0 mm | - | - | - |
| 1777911014 | 21.67° C | 33% | 1003 hPa | 0 mm | - | - | - |
| 1777910411 | 21.67° C | 37% | 1003 hPa | 0 mm | - | - | - |
| 1777909809 | 21.11° C | 46% | 1003.1 hPa | 0 mm | - | - | - |
| 1777909235 | 20.56° C | 46% | 1003.4 hPa | 0 mm | - | - | - |
| 1777908623 | 20° C | 49% | 1003.4 hPa | 0 mm | - | - | - |
| 1777908004 | 20° C | 47% | 1003.5 hPa | 0 mm | - | - | - |
| 1777907402 | 19.44° C | 52% | 1003.7 hPa | 0 mm | - | - | - |
| 1777906810 | 18.89° C | 55% | 1003.7 hPa | 0 mm | - | - | - |
| 1777906227 | 18.33° C | 56% | 1003.7 hPa | 0 mm | - | - | - |
| 1777905602 | 17.78° C | 59% | 1003.9 hPa | 0 mm | - | - | - |
| 1777905000 | 17.22° C | 60% | 1004 hPa | 0 mm | - | - | - |
| 1777904408 | 16.67° C | 63% | 1004.2 hPa | 0 mm | - | - | - |
| 1777903808 | 16.11° C | 64% | 1004.3 hPa | 0 mm | - | - | - |
| 1777903236 | 15.56° C | 65% | 1004.5 hPa | 0 mm | - | - | - |
| 1777902604 | 15° C | 67% | 1004.5 hPa | 0 mm | - | - | - |
| 1777902004 | 14.44° C | 67% | 1004.5 hPa | 0 mm | - | - | - |
| 1777901405 | 13.89° C | 70% | 1004.8 hPa | 0 mm | - | - | - |
* Rain latest hour (hover to see other rain measurements)
** Current wind speed in m/s (hover to see current wind gust speed)